Regional Weather Roundup
Issued by NWS Sioux Falls, SD

Home | Current Version | Previous Version | Text Only | Print | Product List | Glossary On
Versions: 1 2 3 4 5 6 7 8 9 10 11 12 13 14 15 16 17 18 19 20 21 22 23 24 25 26 27 28 29 30 31 32 33 34 35 36 37 38 39 40 41 42 43 44 45 46 47 48 49 50
000
ASUS43 KFSD 271302
RWRFSD

WEATHER ROUNDUP FOR SE SOUTH DAKOTA/SW MINNESOTA/NW IOWA
NATIONAL WEATHER SERVICE SIOUX FALLS SD
800 AM CDT WED MAY 27 2015

NOTE: "FAIR" INDICATES FEW OR NO CLOUDS BELOW 12,000 FEET WITH NO
SIGNIFICANT WEATHER AND OR OBSTRUCTIONS TO VISIBILITY.


SDZ038>040-050-052>070-271400-
SOUTHEAST SOUTH DAKOTA

CITY           SKY/WX    TMP DP  RH WIND       PRES   REMARKS
BROOKINGS      SUNNY     59  54  82 NW3       29.98S
CHAMBERLAIN    MOSUNNY   57  51  80 SW5       30.01R
HURON          SUNNY     59  53  80 CALM      29.98R
MADISON        FAIR      59  50  72 W9        29.98S
MITCHELL       SUNNY     60  52  74 W5        29.99R
SIOUX FALLS    SUNNY     61  53  75 CALM      29.99R
WINNER         FAIR      63  47  55 SW9       30.02R
YANKTON        SUNNY     57  54  88 W3        30.00R
$$

MNZ071-072-080-081-089-090-097-098-271400-
SOUTHWEST MINNESOTA

CITY           SKY/WX    TMP DP  RH WIND       PRES   REMARKS
FAIRMONT       PTSUNNY   63  52  67 SW10      29.96R
JACKSON        SUNNY     61  54  77 W8        29.97S
LUVERNE        SUNNY     59  52  77 NW3       29.99S
MARSHALL       SUNNY     63  48  59 W10       29.93S
MONTEVIDEO     SUNNY     63  54  72 NW7       29.93R
REDWOOD FALLS  SUNNY     61  53  75 W8        29.92R
TRACY          SUNNY     62  53  73 W7        29.95S
WINDOM         SUNNY     59  54  82 W9        29.96S
WORTHINGTON    SUNNY     61  52  72 W12       29.98R
$$

IAZ001>003-012>014-020>022-031-032-NEZ013-014-SDZ071-271400-
NORTHWEST IOWA

CITY           SKY/WX    TMP DP  RH WIND       PRES   REMARKS
DENISON        SUNNY     55  55 100 CALM      30.01R
ESTHERVILLE    MOSUNNY   58  54  86 W10       29.96S
LE MARS        SUNNY     59  55  88 CALM      30.01S
ORANGE CITY    SUNNY     57  54  88 NW3       30.00R
SIOUX CITY     SUNNY     59  53  80 CALM      30.01R
SPENCER        SUNNY     58  54  86 W7        29.99R
$$

ABBREVIATIONS USED IN REMARKS
   TC - TEMPERATURE IN CELSIUS
  WCI - WIND CHILL INDEX
   HX - HEAT INDEX
  VSB - VISIBILITY




USA.gov is the U.S. government's official web portal to all federal, state and local government web resources and services.